DW7281 Weather Reports


time (UTC)temp
C
wind
direction
speed
KPH
gust
KPH
rain 1hr
cm
rain 24hr
cm
rain mn
cm
humidity
%
barometer
mb
20260505013054 22 0 0.0 0.0 0.00 0.00 0.00 64 1021.3
20260505011555 22 0 0.0 0.0 0.00 0.00 0.00 65 1021.6
20260505010058 22 0 0.0 0.0 0.00 0.00 0.00 65 1021.8
20260505004553 21 0 0.0 0.0 0.00 0.00 0.00 68 1022.0
20260505003056 21 0 0.0 0.0 0.00 0.00 0.00 69 1022.4
20260505001555 21 0 0.0 0.0 0.00 0.00 0.00 69 1022.7
20260505000048 21 0 0.0 0.0 0.00 0.00 0.00 72 1022.6
20260504234551 19 0 0.0 0.0 0.00 0.00 0.00 78 1022.8
20260504233047 18 0 0.0 0.0 0.00 0.00 0.00 81 1022.8
20260504231548 17 0 0.0 0.0 0.00 0.00 0.00 86 1022.8
20260504230134 16 0 0.0 0.0 0.00 0.00 0.00 88 1022.7
20260504224543 16 0 0.0 3.2 0.00 0.00 0.00 90 1022.6
20260504223058 16 0 0.0 4.8 0.00 0.00 0.00 92 1022.5
20260504221551 15 349 0.0 6.4 0.00 0.00 0.00 93 1022.5
20260504220050 15 0 0.0 0.0 0.00 0.00 0.00 93 1022.4
20260504214542 15 0 0.0 8.0 0.00 0.00 0.00 93 1022.4
20260504213047 15 0 0.0 8.0 0.00 0.00 0.00 93 1022.2
20260504211620 15 0 1.6 6.4 0.00 0.00 0.00 93 1022.3
20260504210049 15 0 0.0 8.0 0.00 0.00 0.00 92 1022.0
20260504204548 15 0 0.0 0.0 0.00 0.00 0.00 92 1021.9
20260504203050 15 0 0.0 0.0 0.00 0.00 0.00 92 1021.7
20260504201547 15 0 0.0 0.0 0.00 0.00 0.00 92 1021.7
20260504200045 15 0 0.0 8.0 0.00 0.00 0.00 92 1021.6
20260504194550 15 0 1.6 6.4 0.00 0.00 0.00 92 1021.5
20260504193049 15 0 0.0 0.0 0.00 0.00 0.00 92 1021.2
20260504191551 15 0 0.0 4.8 0.00 0.00 0.00 92 1021.1
20260504190059 15 39 3.2 12.9 0.00 0.00 0.00 92 1020.9
20260504184553 15 17 3.2 11.3 0.00 0.00 0.00 92 1020.7
20260504183047 15 0 0.0 11.3 0.00 0.00 0.00 92 1020.7
20260504181559 15 0 0.0 8.0 0.00 0.00 0.00 92 1020.5
20260504180053 15 0 0.0 8.0 0.00 0.00 0.00 91 1020.7
20260504174548 15 0 1.6 11.3 0.00 0.00 0.00 91 1020.7
20260504173055 15 0 1.6 11.3 0.00 0.00 0.00 92 1020.8
20260504171548 15 33 0.0 6.4 0.00 0.00 0.00 91 1020.6
20260504081550 18 0 0.0 0.0 0.00 0.00 0.00 77 1021.4
20260504044555 22 55 3.2 14.5 0.00 0.00 0.00 67 1020.7
20260504043056 22 51 3.2 14.5 0.00 0.00 0.00 67 1020.7
20260504041548 22 0 1.6 14.5 0.00 0.00 0.00 68 1020.9
20260504040111 22 0 3.2 17.7 0.00 0.00 0.00 68 1020.9
20260504034544 21 0 0.0 17.7 0.00 0.00 0.00 68 1020.9
20260504033048 21 0 1.6 14.5 0.00 0.00 0.00 70 1020.9
20260504031555 21 0 8.0 17.7 0.00 0.00 0.00 71 1021.3
20260504030044 21 0 0.0 14.5 0.00 0.00 0.00 74 1021.5
20260504024546 21 21 1.6 14.5 0.00 0.00 0.00 75 1021.6
20260504023050 20 44 1.6 14.5 0.00 0.00 0.00 79 1021.9
20260504021545 20 25 3.2 14.5 0.00 0.00 0.00 80 1022.0
20260504020055 19 0 1.6 12.9 0.00 0.00 0.00 81 1022.3
20260504014544 19 0 0.0 14.5 0.00 0.00 0.00 81 1022.8